AB8Y-13 Weather Reports


time (UTC)temp
C
wind
direction
speed
KPH
gust
KPH
rain 1hr
cm
rain 24hr
cm
rain mn
cm
humidity
%
barometer
mb
20260509032244 7 264 0.0 0.0 0.00 0.00 0.00 64 1007.0
20260509031742 7 264 0.0 0.0 0.00 0.00 0.00 66 1007.1
20260509031240 7 264 0.0 0.0 0.00 0.00 0.00 64 1007.4
20260509030738 7 264 0.0 0.0 0.00 0.00 0.00 66 1007.3
20260509030235 7 264 0.0 0.0 0.00 0.00 0.00 66 1007.4
20260509025732 7 264 0.0 0.0 0.00 0.00 0.00 64 1007.6
20260509025227 7 264 0.0 0.0 0.00 0.00 0.00 64 1007.8
20260509024722 7 264 0.0 0.0 0.00 0.00 0.00 61 1007.7
20260509024218 7 264 0.0 0.0 0.00 0.00 0.00 57 1007.4
20260509023716 7 264 0.0 0.0 0.00 0.00 0.00 63 1007.3
20260509023213 7 264 0.0 0.0 0.00 0.00 0.00 63 1007.4
20260509022709 7 264 0.0 0.0 0.00 0.00 0.00 61 1007.7
20260509022207 7 264 0.0 0.0 0.00 0.00 0.00 59 1007.4
20260509021704 7 264 0.0 0.0 0.00 0.00 0.00 59 1007.3
20260509021201 7 264 0.0 0.0 0.00 0.00 0.00 62 1007.7
20260509020659 7 264 0.0 0.0 0.00 0.00 0.00 57 1007.6
20260509020156 7 264 1.6 1.6 0.00 0.00 0.00 56 1007.7
20260509015654 7 264 0.0 0.0 0.00 0.00 0.00 57 1007.6
20260509015152 7 264 0.0 0.0 0.00 0.00 0.00 56 1007.4
20260509014648 7 264 0.0 0.0 0.00 0.00 0.00 55 1007.4
20260509014145 7 264 0.0 0.0 0.00 0.00 0.00 56 1007.3
20260509013642 8 264 0.0 0.0 0.00 0.00 0.00 54 1007.4
20260509013138 8 264 0.0 0.0 0.00 0.00 0.00 56 1007.3
20260509012634 8 264 0.0 0.0 0.00 0.00 0.00 55 1007.3
20260509012131 8 264 0.0 0.0 0.00 0.00 0.00 52 1007.1
20260509011630 8 264 0.0 0.0 0.00 0.00 0.00 50 1007.1
20260509011126 9 265 0.0 0.0 0.00 0.00 0.00 50 1007.1
20260509010624 10 265 0.0 0.0 0.00 0.00 0.00 50 1007.4
20260509010120 10 265 0.0 0.0 0.00 0.00 0.00 48 1007.0
20260509005618 10 265 0.0 0.0 0.00 0.00 0.00 41 1007.0
20260509005113 11 265 0.0 0.0 0.00 0.00 0.00 42 1007.0
20260509004609 11 265 0.0 0.0 0.00 0.00 0.00 43 1007.0
20260509004107 11 265 0.0 0.0 0.00 0.00 0.00 45 1007.1
20260509003605 11 265 0.0 0.0 0.00 0.00 0.00 42 1006.9
20260509003102 12 265 0.0 0.0 0.00 0.00 0.00 36 1006.8
20260509002600 12 265 0.0 0.0 0.00 0.00 0.00 35 1006.8
20260509002057 12 265 0.0 0.0 0.00 0.00 0.00 35 1006.9
20260509001554 12 265 0.0 0.0 0.00 0.00 0.00 33 1007.0
20260509001049 13 265 0.0 0.0 0.00 0.00 0.00 36 1006.7
20260509000549 13 265 0.0 0.0 0.00 0.00 0.00 35 1006.8
20260509000044 13 265 0.0 0.0 0.00 0.00 0.00 35 1006.7
20260508235542 13 265 0.0 0.0 0.00 0.00 0.00 34 1006.7
20260508235038 13 278 0.0 1.6 0.00 0.00 0.00 30 1006.8
20260508234536 14 275 0.0 0.0 0.00 0.00 0.00 37 1006.6
20260508234032 15 355 0.0 0.0 0.00 0.00 0.00 33 1006.8
20260508233532 15 344 3.2 3.2 0.00 0.00 0.00 27 1006.6
20260508233029 15 195 1.6 1.6 0.00 0.00 0.00 32 1006.6
20260508232526 15 195 0.0 0.0 0.00 0.00 0.00 27 1006.6
20260508232023 16 88 1.6 1.6 0.00 0.00 0.00 26 1006.4
20260508231520 16 172 0.0 0.0 0.00 0.00 0.00 30 1006.7
20260508231017 16 89 1.6 1.6 0.00 0.00 0.00 29 1006.6
20260508230514 16 156 1.6 1.6 0.00 0.00 0.00 26 1006.6
20260508230010 16 164 3.2 3.2 0.00 0.00 0.00 30 1006.6
20260508225508 16 206 3.2 4.8 0.00 0.00 0.00 26 1006.7
20260508225004 17 194 3.2 4.8 0.00 0.00 0.00 24 1007.0
20260508224502 17 170 0.0 1.6 0.00 0.00 0.00 25 1007.0
20260508223959 17 120 1.6 1.6 0.00 0.00 0.00 28 1006.9
20260508223457 18 247 0.0 0.0 0.00 0.00 0.00 25 1006.9
20260508222954 18 105 1.6 1.6 0.00 0.00 0.00 24 1006.7
20260508222452 18 198 1.6 1.6 0.00 0.00 0.00 24 1006.9
20260508221948 18 59 1.6 1.6 0.00 0.00 0.00 27 1006.8
20260508221444 18 204 1.6 1.6 0.00 0.00 0.00 24 1006.9
20260508220940 18 266 3.2 4.8 0.00 0.00 0.00 23 1006.8
20260508220437 18 302 3.2 3.2 0.00 0.00 0.00 23 1006.8
20260508215933 18 188 4.8 6.4 0.00 0.00 0.00 23 1006.9
20260508215431 18 246 1.6 3.2 0.00 0.00 0.00 27 1007.1
20260508214927 18 41 3.2 3.2 0.00 0.00 0.00 26 1007.0
20260508214425 18 162 3.2 3.2 0.00 0.00 0.00 25 1007.1
20260508213920 18 274 3.2 3.2 0.00 0.00 0.00 24 1007.2
20260508213418 18 279 1.6 1.6 0.00 0.00 0.00 26 1007.1
20260508212913 18 105 6.4 9.7 0.00 0.00 0.00 22 1007.2
20260508212410 18 281 3.2 4.8 0.00 0.00 0.00 24 1007.3
20260508211906 18 197 9.7 14.5 0.00 0.00 0.00 23 1007.2
20260508211402 17 240 3.2 3.2 0.00 0.00 0.00 24 1007.1
20260508210900 17 238 3.2 3.2 0.00 0.00 0.00 23 1007.4
20260508210356 18 352 3.2 4.8 0.00 0.00 0.00 26 1007.3
20260508205852 17 300 1.6 3.2 0.00 0.00 0.00 28 1007.2
20260508205349 17 195 3.2 3.2 0.00 0.00 0.00 26 1007.4
20260508204845 18 176 3.2 3.2 0.00 0.00 0.00 25 1007.7
20260508204343 18 60 1.6 1.6 0.00 0.00 0.00 28 1007.7
20260508203838 18 146 4.8 4.8 0.00 0.00 0.00 26 1008.1
20260508203335 17 348 8.0 14.5 0.00 0.00 0.00 24 1008.0
20260508202830 17 194 3.2 3.2 0.00 0.00 0.00 26 1007.9
20260508202328 17 294 3.2 3.2 0.00 0.00 0.00 32 1008.0
20260508201825 18 280 8.0 12.9 0.00 0.00 0.00 27 1008.1
20260508201322 18 286 8.0 9.7 0.00 0.00 0.00 26 1008.0
20260508200818 17 185 3.2 3.2 0.00 0.00 0.00 28 1008.3
20260508200315 17 178 3.2 4.8 0.00 0.00 0.00 30 1008.4
20260508195811 17 50 3.2 3.2 0.00 0.00 0.00 27 1008.5
20260508195308 17 235 6.4 6.4 0.00 0.00 0.00 27 1008.6
20260508194804 18 208 3.2 3.2 0.00 0.00 0.00 28 1008.4
20260508194301 17 61 1.6 1.6 0.00 0.00 0.00 26 1008.7
20260508193758 17 223 3.2 3.2 0.00 0.00 0.00 29 1008.6
20260508193255 17 201 3.2 3.2 0.00 0.00 0.00 27 1008.6
20260508192751 17 307 4.8 9.7 0.00 0.00 0.00 24 1008.8
20260508192248 17 41 1.6 3.2 0.00 0.00 0.00 27 1008.8
20260508191746 17 185 9.7 12.9 0.00 0.00 0.00 26 1009.0
20260508191243 17 283 4.8 6.4 0.00 0.00 0.00 28 1009.0
20260508190740 17 269 3.2 4.8 0.00 0.00 0.00 29 1008.8
20260508190236 17 280 6.4 6.4 0.00 0.00 0.00 30 1009.1
20260508185733 17 287 4.8 4.8 0.00 0.00 0.00 29 1009.2
20260508185230 16 188 3.2 3.2 0.00 0.00 0.00 32 1009.1
20260508184727 17 231 6.4 6.4 0.00 0.00 0.00 28 1009.5
20260508184224 17 251 4.8 4.8 0.00 0.00 0.00 25 1009.4
20260508183721 17 285 4.8 4.8 0.00 0.00 0.00 30 1009.5
20260508183217 17 199 4.8 4.8 0.00 0.00 0.00 26 1009.5
20260508182713 16 274 1.6 1.6 0.00 0.00 0.00 26 1009.4
20260508182210 17 11 6.4 6.4 0.00 0.00 0.00 26 1009.4
20260508181706 17 61 3.2 3.2 0.00 0.00 0.00 28 1009.3
20260508181203 17 270 3.2 3.2 0.00 0.00 0.00 28 1009.4
20260508180700 16 195 1.6 1.6 0.00 0.00 0.00 31 1009.6
20260508180157 16 200 8.0 12.9 0.00 0.00 0.00 27 1009.9
20260508175653 16 181 3.2 4.8 0.00 0.00 0.00 26 1010.0
20260508175149 16 200 4.8 4.8 0.00 0.00 0.00 28 1009.9
20260508174648 16 231 0.0 0.0 0.00 0.00 0.00 30 1010.1
20260508174144 16 322 6.4 6.4 0.00 0.00 0.00 28 1010.4
20260508173641 16 61 3.2 3.2 0.00 0.00 0.00 25 1010.3
20260508173137 16 30 4.8 4.8 0.00 0.00 0.00 28 1010.2
20260508172634 17 282 1.6 1.6 0.00 0.00 0.00 35 1010.3
20260508172131 16 36 1.6 3.2 0.00 0.00 0.00 35 1010.1
20260508171628 16 84 4.8 4.8 0.00 0.00 0.00 29 1010.5
20260508171124 16 72 1.6 1.6 0.00 0.00 0.00 25 1010.5
20260508170621 16 269 3.2 3.2 0.00 0.00 0.00 27 1010.5
20260508170119 15 297 4.8 4.8 0.00 0.00 0.00 32 1010.8
20260508165616 15 106 3.2 4.8 0.00 0.00 0.00 29 1010.6
20260508165113 15 113 3.2 3.2 0.00 0.00 0.00 28 1010.9
20260508164609 15 192 1.6 1.6 0.00 0.00 0.00 31 1010.8
20260508164106 15 157 8.0 12.9 0.00 0.00 0.00 27 1010.9
20260508163603 15 321 1.6 3.2 0.00 0.00 0.00 30 1011.0
20260508163100 15 91 1.6 1.6 0.00 0.00 0.00 27 1011.2
20260508162556 16 258 6.4 9.7 0.00 0.00 0.00 29 1011.1
20260508162054 16 266 3.2 3.2 0.00 0.00 0.00 31 1011.2
20260508161550 15 350 3.2 3.2 0.00 0.00 0.00 31 1011.1
20260508161048 15 200 6.4 6.4 0.00 0.00 0.00 30 1011.1
20260508160546 15 195 6.4 6.4 0.00 0.00 0.00 30 1011.3
20260508160043 15 250 3.2 3.2 0.00 0.00 0.00 35 1011.2
20260508155540 15 110 1.6 1.6 0.00 0.00 0.00 35 1011.3
20260508155037 15 211 0.0 0.0 0.00 0.00 0.00 28 1011.2
20260508154534 15 1 1.6 1.6 0.00 0.00 0.00 30 1011.3
20260508154031 15 242 3.2 4.8 0.00 0.00 0.00 31 1011.2
20260508153527 14 331 3.2 3.2 0.00 0.00 0.00 31 1011.3
20260508153024 15 170 3.2 3.2 0.00 0.00 0.00 31 1011.5
20260508152521 15 226 1.6 1.6 0.00 0.00 0.00 37 1011.3
20260508152017 14 109 1.6 3.2 0.00 0.00 0.00 35 1011.6
20260508151514 13 181 0.0 0.0 0.00 0.00 0.00 40 1011.5
20260508151010 13 218 3.2 3.2 0.00 0.00 0.00 37 1011.5
20260508150508 13 197 1.6 3.2 0.00 0.00 0.00 38 1011.8
20260508150004 13 227 4.8 3.2 0.00 0.00 0.00 37 1011.5
20260508145500 13 74 3.2 4.8 0.00 0.00 0.00 37 1011.7
20260508144956 13 148 6.4 9.7 0.00 0.00 0.00 33 1011.7
20260508144454 13 158 1.6 1.6 0.00 0.00 0.00 41 1011.7
20260508143951 13 20 3.2 3.2 0.00 0.00 0.00 39 1011.7
20260508143449 13 106 1.6 1.6 0.00 0.00 0.00 45 1011.8
20260508142945 13 178 1.6 1.6 0.00 0.00 0.00 43 1011.8
20260508142442 13 105 1.6 1.6 0.00 0.00 0.00 40 1012.0
20260508141938 13 250 1.6 1.6 0.00 0.00 0.00 42 1011.8
20260508141435 13 187 3.2 3.2 0.00 0.00 0.00 48 1011.8
20260508140933 13 278 0.0 0.0 0.00 0.00 0.00 49 1012.1
20260508140430 12 285 0.0 1.6 0.00 0.00 0.00 45 1011.9
20260508135925 12 80 1.6 1.6 0.00 0.00 0.00 48 1011.9
20260508135422 12 216 0.0 1.6 0.00 0.00 0.00 42 1012.1
20260508134919 12 195 6.4 6.4 0.00 0.00 0.00 42 1012.1
20260508134415 12 314 1.6 1.6 0.00 0.00 0.00 48 1012.0
20260508133912 11 296 3.2 3.2 0.00 0.00 0.00 47 1012.2
20260508133410 11 173 3.2 3.2 0.00 0.00 0.00 49 1012.1
20260508132906 11 162 0.0 0.0 0.00 0.00 0.00 48 1012.4
20260508132405 11 164 3.2 3.2 0.00 0.00 0.00 54 1012.2
20260508131901 10 223 1.6 1.6 0.00 0.00 0.00 48 1012.1
20260508131356 10 260 1.6 3.2 0.00 0.00 0.00 51 1012.4
20260508130853 10 170 1.6 1.6 0.00 0.00 0.00 53 1012.4
20260508130349 10 141 3.2 3.2 0.00 0.00 0.00 51 1012.4
20260508125846 10 167 3.2 3.2 0.00 0.00 0.00 53 1012.4
20260508125342 10 185 0.0 0.0 0.00 0.00 0.00 61 1012.3
20260508124840 10 173 3.2 3.2 0.00 0.00 0.00 61 1012.3
20260508124337 10 115 1.6 1.6 0.00 0.00 0.00 59 1012.4
20260508123836 9 167 3.2 3.2 0.00 0.00 0.00 60 1012.3
20260508123334 9 175 0.0 1.6 0.00 0.00 0.00 63 1012.2
20260508122830 9 161 0.0 0.0 0.00 0.00 0.00 63 1012.3
20260508122327 8 121 0.0 0.0 0.00 0.00 0.00 72 1012.2
20260508121824 7 121 0.0 0.0 0.00 0.00 0.00 72 1012.0
20260508121322 7 121 0.0 0.0 0.00 0.00 0.00 76 1012.0
20260508120819 6 122 0.0 0.0 0.00 0.00 0.00 78 1011.9
20260508120317 5 122 0.0 0.0 0.00 0.00 0.00 80 1011.7
20260508115814 5 122 0.0 0.0 0.00 0.00 0.00 85 1011.8
20260508115312 5 122 0.0 0.0 0.00 0.00 0.00 85 1011.9
20260508114809 4 122 0.0 0.0 0.00 0.00 0.00 92 1011.7
20260508114306 3 122 0.0 0.0 0.00 0.00 0.00 94 1011.6
20260508113802 3 122 0.0 0.0 0.00 0.00 0.00 96 1011.8
20260508113300 2 120 0.0 0.0 0.00 0.00 0.00 96 1012.0
20260508112756 1 121 0.0 0.0 0.00 0.00 0.00 96 1011.8
20260508112253 1 123 0.0 0.0 0.00 0.00 0.00 96 1011.6
20260508111749 1 123 0.0 0.0 0.00 0.00 0.00 96 1011.7
20260508111247 1 122 0.0 0.0 0.00 0.00 0.00 96 1011.5
20260508110744 1 122 0.0 0.0 0.00 0.00 0.00 96 1011.6
20260508110242 0 122 0.0 0.0 0.00 0.00 0.00 96 1011.4
20260508105742 0 122 0.0 0.0 0.00 0.00 0.00 96 1011.7
20260508105239 0 122 0.0 0.0 0.00 0.00 0.00 96 1011.7
20260508104736 0 123 0.0 0.0 0.00 0.00 0.00 95 1011.6
20260508104233 0 123 0.0 0.0 0.00 0.00 0.00 95 1011.8
20260508103730 0 123 0.0 0.0 0.00 0.00 0.00 95 1011.5
20260508103227 0 123 0.0 0.0 0.00 0.00 0.00 95 1011.6
20260508102724 0 123 0.0 0.0 0.00 0.00 0.00 95 1011.8
20260508102222 0 123 0.0 0.0 0.00 0.00 0.00 95 1011.8
20260508101719 0 123 0.0 0.0 0.00 0.00 0.00 95 1011.6
20260508101217 0 123 0.0 0.0 0.00 0.00 0.00 95 1011.4
20260508100714 0 123 0.0 0.0 0.00 0.00 0.00 95 1011.8
20260508100212 0 123 0.0 0.0 0.00 0.00 0.00 95 1011.6
20260508095708 0 123 0.0 0.0 0.00 0.00 0.00 95 1011.6
20260508095206 0 123 0.0 0.0 0.00 0.00 0.00 95 1011.6
20260508094702 0 123 0.0 0.0 0.00 0.00 0.00 95 1011.7
20260508094159 0 123 0.0 0.0 0.00 0.00 0.00 95 1011.7
20260508093656 0 123 0.0 0.0 0.00 0.00 0.00 95 1011.6
20260508093154 0 123 0.0 0.0 0.00 0.00 0.00 95 1011.6
20260508092651 0 123 0.0 0.0 0.00 0.00 0.00 95 1011.6
20260508092149 0 123 0.0 0.0 0.00 0.00 0.00 95 1011.8
20260508091646 0 123 0.0 0.0 0.00 0.00 0.00 94 1011.7
20260508091143 0 123 0.0 0.0 0.00 0.00 0.00 94 1011.8
20260508090641 0 123 0.0 0.0 0.00 0.00 0.00 94 1011.7
20260508090138 1 123 0.0 0.0 0.00 0.00 0.00 94 1011.8
20260508085634 1 123 0.0 0.0 0.00 0.00 0.00 94 1011.7
20260508085131 1 123 0.0 0.0 0.00 0.00 0.00 94 1011.7
20260508084628 1 123 0.0 0.0 0.00 0.00 0.00 94 1011.8
20260508084125 1 123 0.0 0.0 0.00 0.00 0.00 94 1011.7
20260508083622 1 123 0.0 0.0 0.00 0.00 0.00 93 1011.8
20260508083119 1 123 0.0 0.0 0.00 0.00 0.00 93 1011.8
20260508082615 1 123 0.0 0.0 0.00 0.00 0.00 93 1011.6
20260508082112 2 123 0.0 0.0 0.00 0.00 0.00 93 1011.8
20260508081610 2 123 0.0 0.0 0.00 0.00 0.00 92 1011.7
20260508081106 2 123 0.0 0.0 0.00 0.00 0.00 93 1011.6
20260508080604 2 123 0.0 0.0 0.00 0.00 0.00 93 1011.8
20260508080101 2 123 0.0 0.0 0.00 0.00 0.00 92 1012.0
20260508075557 2 123 0.0 0.0 0.00 0.00 0.00 92 1012.0
20260508075055 3 123 0.0 0.0 0.00 0.00 0.00 92 1011.8
20260508074552 3 123 0.0 0.0 0.00 0.00 0.00 92 1011.8
20260508074049 3 123 0.0 0.0 0.00 0.00 0.00 92 1011.9
20260508073546 3 123 0.0 0.0 0.00 0.00 0.00 92 1012.0
20260508073044 3 123 0.0 0.0 0.00 0.00 0.00 91 1011.9
20260508072539 3 123 0.0 0.0 0.00 0.00 0.00 91 1011.9
20260508072037 3 123 0.0 0.0 0.00 0.00 0.00 91 1011.7
20260508071535 3 123 0.0 0.0 0.00 0.00 0.00 90 1011.6
20260508071032 3 123 0.0 0.0 0.00 0.00 0.00 90 1011.9
20260508070530 4 123 0.0 0.0 0.00 0.00 0.00 88 1011.8
20260508070028 4 123 0.0 0.0 0.00 0.00 0.00 88 1011.7
20260508065525 4 123 0.0 0.0 0.00 0.00 0.00 87 1011.7
20260508065023 4 124 0.0 0.0 0.00 0.00 0.00 87 1011.8
20260508064520 4 124 0.0 0.0 0.00 0.00 0.00 90 1011.7
20260508064018 4 123 0.0 0.0 0.00 0.00 0.00 90 1012.1
20260508063515 4 123 0.0 0.0 0.00 0.00 0.00 89 1011.9
20260508063013 4 123 0.0 0.0 0.00 0.00 0.00 89 1011.8
20260508062511 4 123 0.0 0.0 0.00 0.00 0.00 88 1011.8
20260508062007 5 123 0.0 0.0 0.00 0.00 0.00 87 1011.5
20260508061506 5 123 0.0 0.0 0.00 0.00 0.00 87 1011.7
20260508061001 5 123 0.0 0.0 0.00 0.00 0.00 85 1011.9
20260508060459 5 123 0.0 0.0 0.00 0.00 0.00 87 1012.0
20260508055954 5 123 0.0 0.0 0.00 0.00 0.00 88 1012.2
20260508055452 5 123 0.0 0.0 0.00 0.00 0.00 88 1012.0
20260508054948 5 123 0.0 0.0 0.00 0.00 0.00 87 1012.0
20260508054445 5 123 0.0 0.0 0.00 0.00 0.00 86 1012.2
20260508053942 5 123 0.0 0.0 0.00 0.00 0.00 86 1012.4
20260508053439 5 123 0.0 0.0 0.00 0.00 0.00 86 1012.1
20260508052937 5 124 0.0 1.6 0.00 0.00 0.00 85 1012.1
20260508052434 5 81 1.6 1.6 0.00 0.00 0.00 87 1012.2
20260508051930 5 81 0.0 0.0 0.00 0.00 0.00 86 1012.3
20260508051426 5 81 0.0 0.0 0.00 0.00 0.00 86 1012.3
20260508050922 5 81 0.0 0.0 0.00 0.00 0.00 85 1012.3
20260508050419 5 81 1.6 0.0 0.00 0.00 0.00 83 1012.2
20260508045915 5 81 1.6 1.6 0.00 0.00 0.00 85 1012.1
20260508045413 5 81 0.0 0.0 0.00 0.00 0.00 85 1012.2
20260508044910 5 81 0.0 0.0 0.00 0.00 0.00 85 1012.3
20260508044408 5 81 0.0 0.0 0.00 0.00 0.00 85 1012.0
20260508043903 5 81 0.0 0.0 0.00 0.00 0.00 85 1012.0
20260508043400 5 81 0.0 0.0 0.00 0.00 0.00 83 1012.2
20260508042856 5 81 0.0 0.0 0.00 0.00 0.00 81 1012.2
20260508042354 5 81 0.0 0.0 0.00 0.00 0.00 80 1012.2
20260508041851 5 81 0.0 0.0 0.00 0.00 0.00 81 1012.2
20260508041347 5 78 0.0 0.0 0.00 0.00 0.00 83 1012.3
20260508040844 5 78 0.0 0.0 0.00 0.00 0.00 81 1012.2
20260508040341 5 78 0.0 0.0 0.00 0.00 0.00 79 1012.1
20260508035839 5 77 1.6 1.6 0.00 0.00 0.00 78 1012.1
20260508035336 5 77 0.0 0.0 0.00 0.00 0.00 82 1012.3
20260508034833 5 77 0.0 0.0 0.00 0.00 0.00 81 1012.2
20260508034330 5 77 0.0 0.0 0.00 0.00 0.00 80 1012.2
20260508033826 5 77 0.0 0.0 0.00 0.00 0.00 78 1012.1
20260508033325 5 77 0.0 0.0 0.00 0.00 0.00 82 1012.3
20260508032822 5 77 0.0 0.0 0.00 0.00 0.00 83 1012.1